Location: Lake Arresoe
(56.0000°N, 12.5000°E)
Time: 10:30:27
(UTC+02:00)

FENGYUN 1C DEB - Pass Details

Date: 07 February 2022
Orbit: 673 x 853 km, 98.9° (Epoch: 15 May)

Event Time Altitude Azimuth Distance (km) Brightness Sun altitude
Rises 04:21:19 0° 109° (ESE) 3,082 ? -29.6°
Reaches altitude 10° 04:24:06 10° 91° (E) 2,194 ? -29.3°
Maximum altitude 04:27:22 19° 48° (NE) 1,716 ? -28.8°
Drops below altitude 10° 04:30:45 10° 5° (N) 2,276 ? -28.4°
Sets 04:33:42 0° 348° (NNW) 3,242 ? -28.0°
